Location: Enborne
(51.3833°N, 1.3667°W)
Time: 13:48:13
(UTC+00:00)

Cosmos 1844 Rocket - Pass Details

Date: 24 January 2021
Orbit: 826 x 843 km, 71.0° (Epoch: 05 March)

Event Time Altitude Azimuth Distance (km) Brightness Sun altitude
Rises 20:28:53 0° 265° (W) 3,398 6.8 -35.0°
Reaches altitude 10° 20:32:06 10° 284° (WNW) 2,463 5.9 -35.5°
Maximum altitude 20:36:01 19° 328° (NNW) 1,914 4.9 -36.1°
Enters shadow 20:37:21 17° 346° (NNW) 1,985 4.8 -36.3°
